[[{"header":{"parameterUnit":"m.s-1","parameterCategory":1,"la1":30.2991,"la2":30.254,"lo1":-89.0895,"lo2":-89.0444,"dy":0.0017,"dx":0.0017,"nx":28,"ny":28,"refTime":"2023-07-29T03:00:00:Z","depth":0,"parameterNumber":2,"parameterNumberName":"U-component_of_WINDS"},"data":[0,0,0,0,0,0,0,0,0,0,0,0,0,0,0,0,0,0,0,0,0,0,0,0,0,0,0,0,0,0,0,0,0,0,0,0,0,0,0,0,0,0,0,0,0,0,0,0,0,0,0,0,0,0,0,0,0,0,1.8531,1.8532,0,1.8558,1.8559,1.8559,1.8513,1.8512,1.851,1.8509,1.8538,1.854,1.8542,0,0,0,0,0,0,0,0,0,0,0,0,0,1.844,1.8442,1.8531,1.8532,1.8532,1.8558,1.8559,1.8559,1.8514,1.8512,1.851,1.8508,1.8537,1.854,1.8543,0,0,0,0,0,0,0,0,0,0,0,0,0,1.8474,1.8442,1.8531,1.8513,1.8511,1.8558,1.8559,1.8559,1.8514,1.8512,1.8509,1.8507,1.8536,1.854,1.8543,1.861,0,0,1.8553,1.8554,0,0,0,0,0,0,0,0,1.8473,1.8478,1.8515,1.8514,1.8512,1.853,1.8537,1.8576,1.8515,1.8513,1.8509,1.8506,1.8537,1.854,1.8551,1.8611,1.8613,1.8553,1.8555,1.8557,1.8558,0,0,0,0,0,0,0,1.847,1.8476,1.8542,1.8516,1.8514,1.8502,1.8505,1.8544,1.8538,1.8513,1.851,1.8514,1.8536,1.8548,1.8551,1.8613,1.8553,1.8556,1.8558,1.856,1.8727,1.8729,0,0,0,0,0,0,1.847,1.8475,1.8541,1.8543,1.8486,1.8506,1.8509,1.8527,1.8537,1.8537,1.8515,1.8511,1.8543,1.8547,1.8552,1.8629,1.8557,1.856,1.8562,1.8725,1.8727,1.873,0,0,0,0,0,0,1.8468,1.8476,1.854,1.8508,1.8515,1.851,1.8531,1.8529,1.854,1.8539,1.8538,1.8528,1.8541,1.8547,1.8595,1.8629,1.8561,1.8564,1.8722,1.8725,1.8729,1.8784,0,0,0,0,0,0,1.8466,1.8476,1.8502,1.8509,1.8517,1.8583,1.8533,1.8531,1.8546,1.854,1.8551,1.855,1.854,1.859,1.8598,1.8632,1.8567,1.8719,1.8723,1.8728,1.878,1.879,1.8798,0,0,0,0,0,1.8463,1.8518,1.8503,1.8512,1.8549,1.8585,1.859,1.8577,1.8549,1.8574,1.8573,1.855,1.8624,1.8596,1.8604,1.864,1.8716,1.8722,1.8727,1.8775,1.8788,1.8798,0,0,0,0,0,0,1.8516,1.8518,1.8503,1.8561,1.8573,1.8578,1.8609,1.8591,1.8611,1.8605,1.8588,1.8591,1.8642,1.8646,1.8614,1.8704,1.8666,1.8673,1.8699,1.8711,1.872,1.8717,1.857,0,0,0,0,0,1.8534,1.8563,1.8564,1.8616,1.8622,1.8615,1.863,1.8619,1.8631,1.8636,1.8638,1.8651,1.8677,1.8694,1.8718,1.878,1.8781,1.8809,1.8818,1.8826,1.8832,1.8862,1.8874,1.8748,1.8748,1.8748,0,0,1.8573,1.8578,1.8597,1.8626,1.8634,1.8664,1.862,1.8654,1.8675,1.8641,1.8685,1.8688,1.8701,1.8755,1.8779,1.876,1.8867,1.8833,1.8839,1.8841,1.8869,1.8881,1.8891,1.8752,1.8751,1.8751,0,0,1.8658,1.8666,1.8708,1.8716,1.8728,1.8722,1.8732,1.8739,1.8739,1.8783,1.8757,1.8783,1.8829,1.8838,1.8848,1.8934,1.8913,1.8943,1.8991,1.902,1.903,1.9039,1.9067,1.9078,1.8949,1.8949,1.895,0,1.8705,1.8748,1.8732,1.8767,1.8779,1.8749,1.879,1.88,1.8819,1.8828,1.8807,1.8861,1.8868,1.8922,1.8943,1.8954,1.8963,1.8941,1.903,1.9039,1.9046,1.9073,1.9084,1.8953,1.8952,1.8952,1.8952,0,1.8803,1.8834,1.8867,1.8884,1.8901,1.8939,1.8928,1.8947,1.8934,1.893,1.8974,1.8981,1.9004,1.9017,1.9005,1.9069,1.9056,1.9033,1.8994,1.9062,1.9086,1.9097,1.8958,1.8956,1.8955,1.8955,0,0,1.8923,1.893,1.8942,1.8948,1.8958,1.8981,1.9018,1.9039,1.9054,1.9069,1.9098,1.9136,1.9113,1.9125,1.9114,1.914,1.9204,1.9113,1.9113,1.9128,1.9272,1.9288,1.9301,1.9191,1.9193,1.9194,1.927,0,1.9005,1.9067,1.9052,1.9113,1.9139,1.9109,1.9141,1.915,1.9147,1.9169,1.9166,1.9192,1.9162,1.9169,1.9193,1.9191,1.9233,1.9186,1.9216,1.9217,1.9212,1.9314,1.9332,1.9403,1.928,1.9282,1.9283,0,1.911,1.9126,1.9189,1.9191,1.9202,1.923,1.9247,1.9269,1.9278,1.9274,1.9287,1.927,1.9304,1.9266,1.9313,1.9281,1.9292,1.9293,1.9295,1.9296,1.9253,1.9315,1.9426,1.9436,1.9299,1.9297,1.9296,0,1.9187,1.9225,1.9266,1.9273,1.9278,1.9298,1.9301,1.9308,1.9321,1.9337,1.9345,1.9365,1.9375,1.9391,1.9379,1.9352,1.9426,1.9388,1.9423,1.9423,1.9439,1.9437,1.9551,1.945,1.945,1.9449,1.9449,0,1.928,1.9319,1.9301,1.9326,1.9368,1.9351,1.9393,1.9393,1.9399,1.9423,1.9399,1.9423,1.9406,1.9428,1.942,1.9458,1.9464,1.946,1.9457,1.9461,1.9461,1.9467,1.9461,1.9452,1.9452,1.9451,1.9451,0,1.9373,1.9363,1.9406,1.9406,1.9407,1.9438,1.9438,1.9461,1.9456,1.9487,1.9493,1.9485,1.9509,1.9499,1.9525,1.9519,1.9567,1.9559,1.9564,1.9561,1.9596,1.9592,1.9715,1.9729,1.9621,1.9622,1.9623,0,1.9432,1.9461,1.9463,1.9477,1.9481,1.9504,1.9517,1.9501,1.9515,1.9525,1.9547,1.9569,1.9585,1.9625,1.9621,1.964,1.9631,1.9672,1.9633,1.9636,1.9628,1.9626,1.9627,1.968,1.9681,1.9682,1.9683,0,1.9536,1.9529,1.9547,1.9563,1.9578,1.9591,1.9601,1.9614,1.9598,1.9615,1.9638,1.9651,1.9676,1.9697,1.9714,1.9717,1.9697,1.9695,1.9704,1.9707,1.9708,1.9706,1.9583,1.9692,1.9691,1.9691,1.969,1.969,1.9612,1.9635,1.9639,1.966,1.9665,1.9675,1.9696,1.9692,1.9711,1.9729,1.9719,1.9746,1.9752,1.9772,1.9777,1.9797,1.9781,1.9794,1.9797,1.98,1.9804,1.9706,1.9801,1.9801,1.98,1.98,1.98,0,1.9713,1.9713,1.9732,1.9746,1.9762,1.9741,1.9751,1.9766,1.9789,1.9796,1.9812,1.9838,1.9857,1.9855,1.9873,1.989,1.9881,1.9895,1.9892,1.9893,1.9819,1.9808,1.9901,1.9901,1.9901,1.9901,1.9901,1.9901,1.9767,1.9803,1.9796,1.9835,1.9835,1.986,1.9867,1.9875,1.988,1.991,1.9925,1.9923,1.9926,1.9944,1.996,1.9959,1.9966,1.9983,1.9978,1.9908,1.9898,1.9889,1.9878,1.9985,1.9985,2.005,2.005,2.0051]},{"header":{"parameterUnit":"m.s-1","parameterCategory":1,"la1":30.2991,"la2":30.254,"lo1":-89.0895,"lo2":-89.0444,"dy":0.0017,"dx":0.0017,"nx":28,"ny":28,"refTime":"2023-07-29T03:00:00:Z","depth":0,"parameterNumber":3,"parameterNumberName":"V-component_of_WINDS"},"data":[0,0,0,0,0,0,0,0,0,0,0,0,0,0,0,0,0,0,0,0,0,0,0,0,0,0,0,0,0,0,0,0,0,0,0,0,0,0,0,0,0,0,0,0,0,0,0,0,0,0,0,0,0,0,0,0,0,0,0.5181,0.5181,0,0.5232,0.5233,0.5233,0.5242,0.5242,0.5241,0.5241,0.5292,0.5293,0.5295,0,0,0,0,0,0,0,0,0,0,0,0,0,0.5089,0.509,0.5181,0.5182,0.5182,0.5232,0.5233,0.5233,0.5242,0.5242,0.5241,0.5241,0.5291,0.5293,0.5295,0,0,0,0,0,0,0,0,0,0,0,0,0,0.5133,0.5091,0.5181,0.5193,0.5194,0.5232,0.5233,0.5233,0.5242,0.5242,0.5241,0.524,0.5291,0.5293,0.5296,0.5325,0,0,0.5304,0.5305,0,0,0,0,0,0,0,0,0.5131,0.5137,0.519,0.5192,0.5194,0.523,0.5219,0.5264,0.5242,0.5224,0.5241,0.524,0.5272,0.5276,0.5287,0.5327,0.5329,0.5304,0.5306,0.5307,0.5307,0,0,0,0,0,0,0,0.5128,0.5134,0.5201,0.5191,0.5193,0.5195,0.52,0.5227,0.5251,0.5225,0.5226,0.5232,0.5272,0.5284,0.5288,0.533,0.5304,0.5306,0.5308,0.5309,0.5395,0.5396,0,0,0,0,0,0,0.5123,0.5132,0.5199,0.5203,0.516,0.5197,0.5203,0.5219,0.525,0.5255,0.5233,0.5232,0.528,0.5285,0.529,0.5325,0.5307,0.5309,0.5311,0.5395,0.5395,0.5396,0,0,0,0,0,0,0.5121,0.5129,0.5197,0.5167,0.5176,0.5199,0.5217,0.522,0.5232,0.5256,0.526,0.5241,0.528,0.5286,0.5316,0.5327,0.531,0.5313,0.5394,0.5395,0.5396,0.5396,0,0,0,0,0,0,0.5118,0.5128,0.514,0.5168,0.5178,0.5223,0.5218,0.5222,0.5237,0.5237,0.5264,0.5268,0.528,0.5312,0.5318,0.533,0.5315,0.5393,0.5394,0.5395,0.5396,0.5397,0.5399,0,0,0,0,0,0.5115,0.5138,0.514,0.5148,0.5193,0.5224,0.523,0.5243,0.5238,0.5249,0.5264,0.5267,0.5325,0.5315,0.5322,0.5335,0.5392,0.5394,0.5395,0.5395,0.5397,0.5399,0,0,0,0,0,0,0.5111,0.5142,0.5145,0.5178,0.5198,0.5225,0.5241,0.5245,0.5267,0.5266,0.5281,0.5287,0.5315,0.5328,0.5317,0.5364,0.5358,0.5361,0.5355,0.5357,0.5359,0.5355,0.5317,0,0,0,0,0,0.5114,0.5137,0.5162,0.5189,0.5199,0.5218,0.5232,0.524,0.5261,0.527,0.5287,0.5307,0.533,0.5344,0.5366,0.5397,0.5403,0.541,0.5411,0.5413,0.5415,0.5431,0.5434,0.5401,0.5401,0.5401,0,0,0.5121,0.514,0.5154,0.5189,0.5206,0.5228,0.5225,0.5249,0.5266,0.5273,0.5302,0.5316,0.5339,0.5369,0.5383,0.5381,0.5425,0.5415,0.5416,0.5418,0.5433,0.5436,0.5439,0.5402,0.5402,0.5402,0,0,0.5144,0.5162,0.5186,0.5202,0.5227,0.5239,0.5245,0.5271,0.528,0.5309,0.5315,0.5334,0.5373,0.5389,0.5402,0.5429,0.5433,0.5436,0.5445,0.5461,0.5463,0.5466,0.5475,0.5478,0.5438,0.5438,0.5438,0,0.5149,0.5184,0.5197,0.5221,0.5235,0.5243,0.5266,0.5281,0.5312,0.5322,0.5319,0.5366,0.5382,0.5416,0.5422,0.5433,0.5439,0.5433,0.5462,0.5464,0.5467,0.5476,0.5479,0.5439,0.5439,0.5439,0.5439,0,0.5188,0.5212,0.5228,0.5257,0.5274,0.5297,0.5313,0.5328,0.5334,0.5346,0.5375,0.5395,0.542,0.5429,0.5435,0.5462,0.546,0.5459,0.5453,0.547,0.5479,0.5482,0.5439,0.5439,0.5439,0.5439,0,0,0.5212,0.5247,0.5253,0.5266,0.5293,0.5311,0.5334,0.5359,0.5371,0.5392,0.5411,0.5443,0.5442,0.5457,0.5465,0.5478,0.5498,0.5476,0.5476,0.5479,0.5528,0.5528,0.5532,0.55,0.55,0.5501,0.5526,0,0.5239,0.5281,0.5292,0.5327,0.5349,0.5355,0.5375,0.5393,0.5405,0.5424,0.5437,0.5459,0.5456,0.5465,0.5479,0.5492,0.5508,0.5491,0.5517,0.5518,0.5511,0.5537,0.5537,0.556,0.5529,0.553,0.553,0,0.5276,0.5296,0.5334,0.5357,0.5366,0.5384,0.5407,0.5425,0.5446,0.5453,0.5469,0.5475,0.5498,0.5491,0.5522,0.551,0.5521,0.553,0.5531,0.5534,0.5525,0.554,0.5568,0.5571,0.5536,0.5535,0.5535,0,0.5288,0.5326,0.5352,0.5363,0.5391,0.5403,0.5415,0.5435,0.5449,0.5469,0.5478,0.55,0.5512,0.5528,0.554,0.5534,0.557,0.5564,0.5576,0.5576,0.5584,0.5583,0.5614,0.5591,0.5591,0.5591,0.5591,0,0.5317,0.5339,0.5358,0.5375,0.54,0.5412,0.5436,0.5448,0.5465,0.5484,0.549,0.5507,0.5522,0.554,0.555,0.5574,0.5579,0.5585,0.5587,0.5584,0.5584,0.5592,0.5591,0.5592,0.5592,0.5592,0.5592,0,0.5335,0.5349,0.5379,0.5403,0.5409,0.5426,0.5446,0.5461,0.5473,0.5496,0.5502,0.5519,0.5541,0.5554,0.5582,0.5588,0.5614,0.5616,0.5608,0.5609,0.562,0.5619,0.5657,0.5662,0.5637,0.5637,0.5637,0,0.5352,0.537,0.5395,0.5408,0.542,0.544,0.5454,0.5467,0.5481,0.5504,0.5517,0.5539,0.5558,0.5592,0.5607,0.5628,0.563,0.5642,0.5633,0.5629,0.5629,0.5628,0.5629,0.5643,0.5643,0.5644,0.5644,0,0.5381,0.5387,0.5407,0.5429,0.5445,0.5463,0.5481,0.5491,0.5506,0.5521,0.5544,0.5558,0.5586,0.5608,0.563,0.5641,0.5645,0.5646,0.565,0.5647,0.5642,0.5644,0.5611,0.5645,0.5645,0.5645,0.5645,0.5645,0.5399,0.5414,0.5434,0.5455,0.547,0.5486,0.5502,0.5514,0.5534,0.5558,0.5563,0.5587,0.5605,0.5635,0.5647,0.5665,0.5663,0.5669,0.567,0.5671,0.5671,0.5639,0.5669,0.5669,0.5669,0.5669,0.5669,0,0.5427,0.544,0.546,0.5484,0.5501,0.5503,0.5522,0.5536,0.5556,0.5573,0.5591,0.5616,0.5637,0.5653,0.5674,0.5685,0.5687,0.569,0.5689,0.5692,0.5672,0.5666,0.5688,0.5688,0.5688,0.5688,0.5688,0.5688,0.5444,0.5469,0.5477,0.5509,0.5522,0.5545,0.5555,0.557,0.5583,0.5611,0.5629,0.5639,0.5655,0.5677,0.5696,0.57,0.5707,0.571,0.5714,0.5695,0.5693,0.5691,0.5686,0.5711,0.5711,0.5732,0.5732,0.5732]}]]